This is the latest recevied weather packets stored in our database for station/object AD0YN. If no packets are shown the sender has not sent any weather packets the latest 10 day(s).
| Time | Temp. | Humidity | Pressure | Rain* | Wind** | Luminosity | Snow |
|---|---|---|---|---|---|---|---|
| 1778135943 | 8.89° C | 55% | 1016.7 hPa | 0 mm | - | 0 W/m² | - |
| 1778135640 | 9.44° C | 54% | 1016.7 hPa | 0 mm | - | 0 W/m² | - |
| 1778135337 | 9.44° C | 53% | 1016.6 hPa | 0 mm | - | 0 W/m² | - |
| 1778135033 | 9.44° C | 54% | 1016.9 hPa | 0 mm | - | 0 W/m² | - |
| 1778134731 | 9.44° C | 54% | 1016.7 hPa | 0 mm | - | 0 W/m² | - |
| 1778134429 | 9.44° C | 53% | 1016.9 hPa | 0 mm | - | 0 W/m² | - |
| 1778134127 | 9.44° C | 54% | 1016.8 hPa | 0 mm | - | 0 W/m² | - |
| 1778133823 | 8.89° C | 54% | 1016.8 hPa | 0 mm | - | 0 W/m² | - |
| 1778133521 | 8.89° C | 58% | 1017 hPa | 0 mm | - | 0 W/m² | - |
| 1778133221 | 8.89° C | 55% | 1017 hPa | 0 mm | - | 0 W/m² | - |
| 1778132918 | 8.89° C | 58% | 1017 hPa | 0 mm | - | 0 W/m² | - |
| 1778132614 | 8.89° C | 56% | 1017 hPa | 0 mm | - | 0 W/m² | - |
| 1778132312 | 8.89° C | 57% | 1017 hPa | 0 mm | - | 0 W/m² | - |
| 1778132010 | 8.89° C | 59% | 1016.9 hPa | 0 mm | - | 0 W/m² | - |
| 1778131708 | 8.89° C | 57% | 1016.8 hPa | 0 mm | - | 0 W/m² | - |
| 1778131404 | 8.89° C | 55% | 1017 hPa | 0 mm | - | 0 W/m² | - |
| 1778131102 | 8.89° C | 57% | 1016.9 hPa | 0 mm | - | 0 W/m² | - |
| 1778130800 | 8.89° C | 53% | 1017 hPa | 0 mm | - | 0 W/m² | - |
| 1778130496 | 8.89° C | 53% | 1016.9 hPa | 0 mm | - | 0 W/m² | - |
| 1778130192 | 8.89° C | 53% | 1017.2 hPa | 0 mm | - | 0 W/m² | - |
| 1778129890 | 8.89° C | 56% | 1017.1 hPa | 0 mm | - | 0 W/m² | - |
| 1778129586 | 8.89° C | 55% | 1016.9 hPa | 0 mm | - | 0 W/m² | - |
| 1778129283 | 8.89° C | 54% | 1017.1 hPa | 0 mm | - | 0 W/m² | - |
| 1778128980 | 8.89° C | 54% | 1017.1 hPa | 0 mm | - | 0 W/m² | - |
| 1778128676 | 8.89° C | 59% | 1017.3 hPa | 0 mm | - | 0 W/m² | - |
* Rain latest hour (hover to see other rain measurements)
** Current wind speed in m/s (hover to see current wind gust speed)